This is the latest recevied weather packets stored in our database for station/object EA3ANS-1. If no packets are shown the sender has not sent any weather packets the latest 10 day(s).
| Time | Temp. | Humidity | Pressure | Rain* | Wind** | Luminosity | Snow |
|---|---|---|---|---|---|---|---|
| 1787635589 | 20° C | - | 1010.2 hPa | 0 mm | 3.13 m/s, 319° | - | - |
| 1787634985 | 20° C | - | 1009.9 hPa | 0 mm | 3.13 m/s, 338° | - | - |
| 1787634387 | 20° C | - | 1010.8 hPa | 0 mm | 2.24 m/s, 311° | - | - |
| 1787634043 | 20° C | - | 1010.7 hPa | 0 mm | 2.68 m/s, 345° | - | - |
| 1787633789 | 20° C | - | 1010.7 hPa | 0 mm | 2.68 m/s, 345° | - | - |
| 1787633192 | 20.56° C | - | 1010.6 hPa | 0 mm | 1.79 m/s, 319° | - | - |
| 1787633163 | 20.56° C | - | 1010.6 hPa | 0 mm | 3.13 m/s, 345° | - | - |
| 1787632696 | 20.56° C | - | 1010.6 hPa | 0 mm | 3.13 m/s, 345° | - | - |
| 1787632595 | 20.56° C | - | 1010.6 hPa | 0 mm | 3.13 m/s, 345° | - | - |
| 1787631997 | 20.56° C | - | 1010.6 hPa | 0 mm | 3.58 m/s, 300° | - | - |
| 1787631494 | 20.56° C | - | 1010.6 hPa | 0 mm | 2.68 m/s, 328° | - | - |
| 1787631454 | 20.56° C | - | 1010.6 hPa | 0 mm | 2.68 m/s, 328° | - | - |
| 1787631395 | 20.56° C | - | 1010.6 hPa | 0 mm | 2.68 m/s, 328° | - | - |
| 1787631151 | 20.56° C | - | 1010.5 hPa | 0 mm | 2.68 m/s, 300° | - | - |
| 1787630792 | 20.56° C | - | 1010.5 hPa | 0 mm | 2.68 m/s, 300° | - | - |
| 1787630426 | 20.56° C | - | 1010.4 hPa | 0 mm | 3.13 m/s, 329° | - | - |
| 1787630195 | 20.56° C | - | 1010.4 hPa | 0 mm | 3.13 m/s, 329° | - | - |
| 1787629598 | 20.56° C | - | 1010.3 hPa | 0 mm | 2.68 m/s, 329° | - | - |
| 1787629071 | 20.56° C | - | 1010.3 hPa | 0 mm | 2.68 m/s, 352° | - | - |
| 1787629000 | 20.56° C | - | 1010.3 hPa | 0 mm | 2.68 m/s, 352° | - | - |
| 1787628403 | 20.56° C | - | 1010.3 hPa | 0 mm | 2.68 m/s, 343° | - | - |
| 1787628049 | 21.11° C | - | 1010.3 hPa | 0 mm | 2.68 m/s, 309° | - | - |
| 1787627806 | 21.11° C | - | 1010.3 hPa | 0 mm | 2.68 m/s, 309° | - | - |
| 1787627208 | 20.56° C | - | 1010.3 hPa | 0 mm | 1.79 m/s, 314° | - | - |
| 1787626810 | 21.11° C | - | 1010.3 hPa | 0 mm | 1.79 m/s, 332° | - | - |
* Rain latest hour (hover to see other rain measurements)
** Current wind speed in m/s (hover to see current wind gust speed)